Location: Castillon
(43.0896°N, 0.2156°E)
Time: 09:57:22
(UTC+00:00)

Cosmos 1544 Rocket - Pass Details

Date: 25 October 2021
Orbit: 603 x 631 km, 82.5° (Epoch: 08 December)

Event Time Altitude Azimuth Distance (km) Brightness Sun altitude
Rises 05:03:51 0° 352° (N) 2,908 6.9 -15.4°
Reaches altitude 10° 05:06:05 10° 352° (N) 1,992 6.1 -15.0°
Maximum altitude 05:10:30 88° 79° (E) 621 3.5 -14.2°
Drops below altitude 10° 05:14:51 10° 172° (S) 1,959 6.3 -13.4°
Sets 05:17:03 0° 173° (S) 2,854 7.1 -13.0°
